Year,Month,Day,Hour,Minute,Value (Times are PST for temperature in C)
2012,10,05,00,00,5.40
2012,10,05,00,01,5.40
2012,10,05,00,02,5.40
2012,10,05,00,03,5.40
2012,10,05,00,04,5.40
2012,10,05,00,05,5.30
2012,10,05,00,06,5.30
2012,10,05,00,07,5.30
2012,10,05,00,08,5.30
2012,10,05,00,09,5.30
2012,10,05,00,10,5.20
2012,10,05,00,11,5.20
2012,10,05,00,12,5.20
2012,10,05,00,13,5.10
2012,10,05,00,14,5.10
2012,10,05,00,15,5.10
2012,10,05,00,16,5.00
2012,10,05,00,17,5.00
2012,10,05,00,18,5.00
2012,10,05,00,19,4.90
2012,10,05,00,20,4.90
2012,10,05,00,21,4.90
2012,10,05,00,22,4.90
2012,10,05,00,23,4.80
2012,10,05,00,24,4.80
2012,10,05,00,25,4.80
2012,10,05,00,26,4.80
2012,10,05,00,27,4.70
2012,10,05,00,28,4.70
2012,10,05,00,29,4.70
2012,10,05,00,30,4.70
2012,10,05,00,31,4.60
2012,10,05,00,32,4.60
2012,10,05,00,33,4.60
2012,10,05,00,34,4.60
2012,10,05,00,35,4.60
2012,10,05,00,36,4.60
2012,10,05,00,37,4.50
2012,10,05,00,38,4.50
2012,10,05,00,39,4.50
2012,10,05,00,40,4.50
2012,10,05,00,41,4.50
2012,10,05,00,42,4.50
2012,10,05,00,43,4.50
2012,10,05,00,44,4.50
2012,10,05,00,45,4.40
2012,10,05,00,46,4.40
2012,10,05,00,47,4.40
2012,10,05,00,48,4.40
2012,10,05,00,49,4.40
2012,10,05,00,50,4.40
2012,10,05,00,51,4.40
2012,10,05,00,52,4.40
2012,10,05,00,53,4.40
2012,10,05,00,54,4.30
2012,10,05,00,55,4.30
2012,10,05,00,56,4.30
2012,10,05,00,57,4.30
2012,10,05,00,58,4.30
2012,10,05,00,59,4.30
2012,10,05,01,00,4.30
2012,10,05,01,01,4.30
2012,10,05,01,02,4.30
2012,10,05,01,03,4.30
2012,10,05,01,04,4.30
2012,10,05,01,05,4.30
2012,10,05,01,06,4.30
2012,10,05,01,07,4.30
2012,10,05,01,08,4.30
2012,10,05,01,09,4.30
2012,10,05,01,10,4.30
2012,10,05,01,11,4.30
2012,10,05,01,12,4.30
2012,10,05,01,13,4.30
2012,10,05,01,14,4.30
2012,10,05,01,15,4.40
2012,10,05,01,16,4.40
2012,10,05,01,17,4.40
2012,10,05,01,18,4.40
2012,10,05,01,19,4.40
2012,10,05,01,20,4.40
2012,10,05,01,21,4.40
2012,10,05,01,22,4.40
2012,10,05,01,23,4.40
2012,10,05,01,24,4.40
2012,10,05,01,25,4.40
2012,10,05,01,26,4.40
2012,10,05,01,27,4.40
2012,10,05,01,28,4.40
2012,10,05,01,29,4.40
2012,10,05,01,30,4.40
2012,10,05,01,31,4.40
2012,10,05,01,32,4.30
2012,10,05,01,33,4.30
2012,10,05,01,34,4.30
2012,10,05,01,35,4.30
2012,10,05,01,36,4.30
2012,10,05,01,37,4.30
2012,10,05,01,38,4.30
2012,10,05,01,39,4.30
2012,10,05,01,40,4.30
2012,10,05,01,41,4.30
2012,10,05,01,42,4.30
2012,10,05,01,43,4.30
2012,10,05,01,44,4.30
2012,10,05,01,45,4.30
2012,10,05,01,46,4.30
2012,10,05,01,47,4.30
2012,10,05,01,48,4.30
2012,10,05,01,49,4.20
2012,10,05,01,50,4.20
2012,10,05,01,51,4.20
2012,10,05,01,52,4.20
2012,10,05,01,53,4.20
2012,10,05,01,54,4.20
2012,10,05,01,55,4.20
2012,10,05,01,56,4.20
2012,10,05,01,57,4.20
2012,10,05,01,58,4.20
2012,10,05,01,59,4.20
2012,10,05,02,00,4.30
2012,10,05,02,01,4.30
2012,10,05,02,02,4.30
2012,10,05,02,03,4.30
2012,10,05,02,04,4.30
2012,10,05,02,05,4.40
2012,10,05,02,06,4.40
2012,10,05,02,07,4.40
2012,10,05,02,08,4.50
2012,10,05,02,09,4.50
2012,10,05,02,10,4.40
2012,10,05,02,11,4.40
2012,10,05,02,12,4.40
2012,10,05,02,13,4.40
2012,10,05,02,14,4.40
2012,10,05,02,15,4.40
2012,10,05,02,16,4.40
2012,10,05,02,17,4.30
2012,10,05,02,18,4.30
2012,10,05,02,19,4.30
2012,10,05,02,20,4.20
2012,10,05,02,21,4.20
2012,10,05,02,22,4.20
2012,10,05,02,23,4.20
2012,10,05,02,24,4.20
2012,10,05,02,25,4.20
2012,10,05,02,26,4.10
2012,10,05,02,27,4.10
2012,10,05,02,28,4.10
2012,10,05,02,29,4.10
2012,10,05,02,30,4.10
2012,10,05,02,31,4.10
2012,10,05,02,32,4.10
2012,10,05,02,33,4.10
2012,10,05,02,34,4.10
2012,10,05,02,35,4.10
2012,10,05,02,36,4.00
2012,10,05,02,37,4.00
2012,10,05,02,38,3.90
2012,10,05,02,39,3.90
2012,10,05,02,40,3.90
2012,10,05,02,41,3.90
2012,10,05,02,42,3.90
2012,10,05,02,43,3.80
2012,10,05,02,44,3.80
2012,10,05,02,45,3.80
2012,10,05,02,46,3.80
2012,10,05,02,47,3.80
2012,10,05,02,48,3.80
2012,10,05,02,49,3.80
2012,10,05,02,50,3.80
2012,10,05,02,51,3.80
2012,10,05,02,52,3.80
2012,10,05,02,53,3.80
2012,10,05,02,54,3.80
2012,10,05,02,55,3.80
2012,10,05,02,56,3.80
2012,10,05,02,57,3.80
2012,10,05,02,58,3.80
2012,10,05,02,59,3.70
2012,10,05,03,00,3.70
2012,10,05,03,01,3.70
2012,10,05,03,02,3.70
2012,10,05,03,03,3.70
2012,10,05,03,04,3.60
2012,10,05,03,05,3.60
2012,10,05,03,06,3.60
2012,10,05,03,07,3.60
2012,10,05,03,08,3.60
2012,10,05,03,09,3.60
2012,10,05,03,10,3.60
2012,10,05,03,11,3.60
2012,10,05,03,12,3.60
2012,10,05,03,13,3.60
2012,10,05,03,14,3.60
2012,10,05,03,15,3.60
2012,10,05,03,16,3.60
2012,10,05,03,17,3.60
2012,10,05,03,18,3.60
2012,10,05,03,19,3.60
2012,10,05,03,20,3.60
2012,10,05,03,21,3.60
2012,10,05,03,22,3.60
2012,10,05,03,23,3.60
2012,10,05,03,24,3.50
2012,10,05,03,25,3.50
2012,10,05,03,26,3.50
2012,10,05,03,27,3.50
2012,10,05,03,28,3.40
2012,10,05,03,29,3.40
2012,10,05,03,30,3.40
2012,10,05,03,31,3.40
2012,10,05,03,32,3.50
2012,10,05,03,33,3.40
2012,10,05,03,34,3.50
2012,10,05,03,35,3.40
2012,10,05,03,36,3.40
2012,10,05,03,37,3.40
2012,10,05,03,38,3.40
2012,10,05,03,39,3.40
2012,10,05,03,40,3.40
2012,10,05,03,41,3.40
2012,10,05,03,42,3.40
2012,10,05,03,43,3.40
2012,10,05,03,44,3.40
2012,10,05,03,45,3.40
2012,10,05,03,46,3.40
2012,10,05,03,47,3.40
2012,10,05,03,48,3.40
2012,10,05,03,49,3.40
2012,10,05,03,50,3.40
2012,10,05,03,51,3.40
2012,10,05,03,52,3.30
2012,10,05,03,53,3.30
2012,10,05,03,54,3.30
2012,10,05,03,55,3.30
2012,10,05,03,56,3.30
2012,10,05,03,57,3.30
2012,10,05,03,58,3.20
2012,10,05,03,59,3.20
2012,10,05,04,00,3.20
2012,10,05,04,01,3.20
2012,10,05,04,02,3.20
2012,10,05,04,03,3.10
2012,10,05,04,04,3.10
2012,10,05,04,05,3.10
2012,10,05,04,06,3.10
2012,10,05,04,07,3.10
2012,10,05,04,08,3.10
2012,10,05,04,09,3.10
2012,10,05,04,10,3.10
2012,10,05,04,11,3.10
2012,10,05,04,12,3.10
2012,10,05,04,13,3.10
2012,10,05,04,14,3.10
2012,10,05,04,15,3.10
2012,10,05,04,16,3.10
2012,10,05,04,17,3.20
2012,10,05,04,18,3.20
2012,10,05,04,19,3.20
2012,10,05,04,20,3.20
2012,10,05,04,21,3.20
2012,10,05,04,22,3.20
2012,10,05,04,23,3.20
2012,10,05,04,24,3.20
2012,10,05,04,25,3.20
2012,10,05,04,26,3.10
2012,10,05,04,27,3.10
2012,10,05,04,28,3.10
2012,10,05,04,29,3.10
2012,10,05,04,30,3.10
2012,10,05,04,31,3.10
2012,10,05,04,32,3.10
2012,10,05,04,33,3.20
2012,10,05,04,34,3.20
2012,10,05,04,35,3.20
2012,10,05,04,36,3.30
2012,10,05,04,37,3.30
2012,10,05,04,38,3.30
2012,10,05,04,39,3.30
2012,10,05,04,40,3.30
2012,10,05,04,41,3.30
2012,10,05,04,42,3.30
2012,10,05,04,43,3.30
2012,10,05,04,44,3.30
2012,10,05,04,45,3.30
2012,10,05,04,46,3.30
2012,10,05,04,47,3.30
2012,10,05,04,48,3.30
2012,10,05,04,49,3.20
2012,10,05,04,50,3.20
2012,10,05,04,51,3.20
2012,10,05,04,52,3.20
2012,10,05,04,53,3.20
2012,10,05,04,54,3.20
2012,10,05,04,55,3.30
2012,10,05,04,56,3.30
2012,10,05,04,57,3.30
2012,10,05,04,58,3.40
2012,10,05,04,59,3.40
2012,10,05,05,00,3.50
2012,10,05,05,01,3.50
2012,10,05,05,02,3.50
2012,10,05,05,03,3.60
2012,10,05,05,04,3.60
2012,10,05,05,05,3.50
2012,10,05,05,06,3.50
2012,10,05,05,07,3.50
2012,10,05,05,08,3.40
2012,10,05,05,09,3.40
2012,10,05,05,10,3.40
2012,10,05,05,11,3.40
2012,10,05,05,12,3.30
2012,10,05,05,13,3.30
2012,10,05,05,14,3.30
2012,10,05,05,15,3.30
2012,10,05,05,16,3.30
2012,10,05,05,17,3.30
2012,10,05,05,18,3.30
2012,10,05,05,19,3.20
2012,10,05,05,20,3.20
2012,10,05,05,21,3.20
2012,10,05,05,22,3.20
2012,10,05,05,23,3.20
2012,10,05,05,24,3.20
2012,10,05,05,25,3.20
2012,10,05,05,26,3.20
2012,10,05,05,27,3.20
2012,10,05,05,28,3.20
2012,10,05,05,29,3.20
2012,10,05,05,30,3.20
2012,10,05,05,31,3.20
2012,10,05,05,32,3.20
2012,10,05,05,33,3.10
2012,10,05,05,34,3.10
2012,10,05,05,35,3.10
2012,10,05,05,36,3.10
2012,10,05,05,37,3.20
2012,10,05,05,38,3.20
2012,10,05,05,39,3.20
2012,10,05,05,40,3.20
2012,10,05,05,41,3.20
2012,10,05,05,42,3.20
2012,10,05,05,43,3.20
2012,10,05,05,44,3.20
2012,10,05,05,45,3.20
2012,10,05,05,46,3.10
2012,10,05,05,47,3.10
2012,10,05,05,48,3.10
2012,10,05,05,49,3.10
2012,10,05,05,50,3.00
2012,10,05,05,51,3.00
2012,10,05,05,52,3.00
2012,10,05,05,53,2.90
2012,10,05,05,54,2.90
2012,10,05,05,55,2.90
2012,10,05,05,56,2.90
2012,10,05,05,57,2.90
2012,10,05,05,58,2.90
2012,10,05,05,59,2.90
2012,10,05,06,00,2.90
2012,10,05,06,01,2.90
2012,10,05,06,02,2.90
2012,10,05,06,03,2.90
2012,10,05,06,04,2.80
2012,10,05,06,05,2.90
2012,10,05,06,06,2.90
2012,10,05,06,07,2.90
2012,10,05,06,08,2.90
2012,10,05,06,09,3.00
2012,10,05,06,10,3.10
2012,10,05,06,11,3.10
2012,10,05,06,12,3.10
2012,10,05,06,13,3.10
2012,10,05,06,14,3.20
2012,10,05,06,15,3.20
2012,10,05,06,16,3.20
2012,10,05,06,17,3.20
2012,10,05,06,18,3.10
2012,10,05,06,19,3.10
2012,10,05,06,20,3.10
2012,10,05,06,21,3.20
2012,10,05,06,22,3.20
2012,10,05,06,23,3.30
2012,10,05,06,24,3.30
2012,10,05,06,25,3.40
2012,10,05,06,26,3.40
2012,10,05,06,27,3.40
2012,10,05,06,28,3.30
2012,10,05,06,29,3.30
2012,10,05,06,30,3.30
2012,10,05,06,31,3.30
2012,10,05,06,32,3.30
2012,10,05,06,33,3.20
2012,10,05,06,34,3.20
2012,10,05,06,35,3.20
2012,10,05,06,36,3.20
2012,10,05,06,37,3.20
2012,10,05,06,38,3.20
2012,10,05,06,39,3.10
2012,10,05,06,40,3.10
2012,10,05,06,41,3.10
2012,10,05,06,42,3.10
2012,10,05,06,43,3.10
2012,10,05,06,44,3.10
2012,10,05,06,45,3.10
2012,10,05,06,46,3.00
2012,10,05,06,47,3.00
2012,10,05,06,48,3.00
2012,10,05,06,49,3.00
2012,10,05,06,50,3.00
2012,10,05,06,51,3.00
2012,10,05,06,52,3.00
2012,10,05,06,53,3.00
2012,10,05,06,54,3.10
2012,10,05,06,55,3.00
2012,10,05,06,56,3.00
2012,10,05,06,57,3.00
2012,10,05,06,58,2.90
2012,10,05,06,59,2.90
2012,10,05,07,00,2.90
2012,10,05,07,01,2.90
2012,10,05,07,02,2.90
2012,10,05,07,03,2.90
2012,10,05,07,04,2.90
2012,10,05,07,05,2.90
2012,10,05,07,06,2.90
2012,10,05,07,07,2.90
2012,10,05,07,08,3.00
2012,10,05,07,09,3.00
2012,10,05,07,10,3.00
2012,10,05,07,11,3.00
2012,10,05,07,12,3.00
2012,10,05,07,13,3.00
2012,10,05,07,14,3.00
2012,10,05,07,15,3.00
2012,10,05,07,16,3.00
2012,10,05,07,17,3.00
2012,10,05,07,18,2.90
2012,10,05,07,19,2.90
2012,10,05,07,20,2.90
2012,10,05,07,21,2.90
2012,10,05,07,22,2.90
2012,10,05,07,23,2.90
2012,10,05,07,24,2.90
2012,10,05,07,25,2.90
2012,10,05,07,26,2.90
2012,10,05,07,27,2.90
2012,10,05,07,28,2.90
2012,10,05,07,29,2.90
2012,10,05,07,30,2.90
2012,10,05,07,31,2.90
2012,10,05,07,32,2.80
2012,10,05,07,33,2.80
2012,10,05,07,34,2.80
2012,10,05,07,35,2.80
2012,10,05,07,36,2.80
2012,10,05,07,37,2.80
2012,10,05,07,38,2.80
2012,10,05,07,39,2.80
2012,10,05,07,40,2.80
2012,10,05,07,41,2.70
2012,10,05,07,42,2.70
2012,10,05,07,43,2.70
2012,10,05,07,44,2.70
2012,10,05,07,45,2.70
2012,10,05,07,46,2.70
2012,10,05,07,47,2.70
2012,10,05,07,48,2.60
2012,10,05,07,49,2.60
2012,10,05,07,50,2.60
2012,10,05,07,51,2.60
2012,10,05,07,52,2.60
2012,10,05,07,53,2.50
2012,10,05,07,54,2.50
2012,10,05,07,55,2.50
2012,10,05,07,56,2.50
2012,10,05,07,57,2.40
2012,10,05,07,58,2.40
2012,10,05,07,59,2.40
2012,10,05,08,00,2.40
2012,10,05,08,01,2.40
2012,10,05,08,02,2.40
2012,10,05,08,03,2.40
2012,10,05,08,04,2.40
2012,10,05,08,05,2.40
2012,10,05,08,06,2.40
2012,10,05,08,07,2.40
2012,10,05,08,08,2.40
2012,10,05,08,09,2.40
2012,10,05,08,10,2.40
2012,10,05,08,11,2.50
2012,10,05,08,12,2.50
2012,10,05,08,13,2.50
2012,10,05,08,14,2.60
2012,10,05,08,15,2.60
2012,10,05,08,16,2.60
2012,10,05,08,17,2.70
2012,10,05,08,18,2.70
2012,10,05,08,19,2.80
2012,10,05,08,20,2.80
2012,10,05,08,21,2.90
2012,10,05,08,22,2.90
2012,10,05,08,23,3.00
2012,10,05,08,24,3.10
2012,10,05,08,25,3.10
2012,10,05,08,26,3.20
2012,10,05,08,27,3.20
2012,10,05,08,28,3.30
2012,10,05,08,29,3.30
2012,10,05,08,30,3.40
2012,10,05,08,31,3.40
2012,10,05,08,32,3.50
2012,10,05,08,33,3.60
2012,10,05,08,34,3.60
2012,10,05,08,35,3.60
2012,10,05,08,36,3.60
2012,10,05,08,37,3.60
2012,10,05,08,38,3.70
2012,10,05,08,39,3.70
2012,10,05,08,40,3.70
2012,10,05,08,41,3.80
2012,10,05,08,42,3.90
2012,10,05,08,43,3.90
2012,10,05,08,44,4.00
2012,10,05,08,45,4.00
2012,10,05,08,46,4.00
2012,10,05,08,47,4.00
2012,10,05,08,48,4.10
2012,10,05,08,49,4.10
2012,10,05,08,50,4.20
2012,10,05,08,51,4.20
2012,10,05,08,52,4.30
2012,10,05,08,53,4.30
2012,10,05,08,54,4.40
2012,10,05,08,55,4.50
2012,10,05,08,56,4.60
2012,10,05,08,57,4.70
2012,10,05,08,58,4.80
2012,10,05,08,59,4.90
2012,10,05,09,00,4.90
2012,10,05,09,01,5.00
2012,10,05,09,02,5.10
2012,10,05,09,03,5.20
2012,10,05,09,04,5.30
2012,10,05,09,05,5.40
2012,10,05,09,06,5.50
2012,10,05,09,07,5.50
2012,10,05,09,08,5.60
2012,10,05,09,09,5.70
2012,10,05,09,10,5.80
2012,10,05,09,11,5.90
2012,10,05,09,12,6.00
2012,10,05,09,13,6.20
2012,10,05,09,14,6.40
2012,10,05,09,15,6.50
2012,10,05,09,16,6.70
2012,10,05,09,17,6.80
2012,10,05,09,18,7.00
2012,10,05,09,19,7.10
2012,10,05,09,20,7.20
2012,10,05,09,21,7.30
2012,10,05,09,22,7.50
2012,10,05,09,23,7.60
2012,10,05,09,24,7.70
2012,10,05,09,25,7.80
2012,10,05,09,26,8.00
2012,10,05,09,27,8.10
2012,10,05,09,28,8.30
2012,10,05,09,29,8.40
2012,10,05,09,30,8.40
2012,10,05,09,31,8.50
2012,10,05,09,32,8.60
2012,10,05,09,33,8.60
2012,10,05,09,34,8.70
2012,10,05,09,35,8.80
2012,10,05,09,36,8.90
2012,10,05,09,37,8.90
2012,10,05,09,38,9.00
2012,10,05,09,39,9.10
2012,10,05,09,40,9.10
2012,10,05,09,41,9.20
2012,10,05,09,42,9.30
2012,10,05,09,43,9.30
2012,10,05,09,44,9.40
2012,10,05,09,45,9.50
2012,10,05,09,46,9.50
2012,10,05,09,47,9.60
2012,10,05,09,48,9.80
2012,10,05,09,49,9.90
2012,10,05,09,50,10.10
2012,10,05,09,51,10.30
2012,10,05,09,52,10.70
2012,10,05,09,53,11.20
2012,10,05,09,54,11.80
2012,10,05,09,55,12.20
2012,10,05,09,56,12.50
2012,10,05,09,57,12.80
2012,10,05,09,58,13.00
2012,10,05,09,59,13.20
2012,10,05,10,00,13.30
2012,10,05,10,01,13.50
2012,10,05,10,02,13.60
2012,10,05,10,03,13.80
2012,10,05,10,04,13.90
2012,10,05,10,05,14.00
2012,10,05,10,06,14.10
2012,10,05,10,07,14.20
2012,10,05,10,08,14.30
2012,10,05,10,09,14.40
2012,10,05,10,10,14.50
2012,10,05,10,11,14.50
2012,10,05,10,12,14.60
2012,10,05,10,13,14.60
2012,10,05,10,14,14.60
2012,10,05,10,15,14.70
2012,10,05,10,16,14.70
2012,10,05,10,17,14.70
2012,10,05,10,18,14.80
2012,10,05,10,19,14.80
2012,10,05,10,20,14.80
2012,10,05,10,21,14.80
2012,10,05,10,22,14.80
2012,10,05,10,23,14.90
2012,10,05,10,24,14.90
2012,10,05,10,25,14.90
2012,10,05,10,26,15.00
2012,10,05,10,27,15.00
2012,10,05,10,28,15.10
2012,10,05,10,29,15.10
2012,10,05,10,30,15.10
2012,10,05,10,31,15.10
2012,10,05,10,32,15.10
2012,10,05,10,33,15.20
2012,10,05,10,34,15.20
2012,10,05,10,35,15.20
2012,10,05,10,36,15.20
2012,10,05,10,37,15.20
2012,10,05,10,38,15.30
2012,10,05,10,39,15.30
2012,10,05,10,40,15.30
2012,10,05,10,41,15.40
2012,10,05,10,42,15.40
2012,10,05,10,43,15.40
2012,10,05,10,44,15.50
2012,10,05,10,45,15.50
2012,10,05,10,46,15.50
2012,10,05,10,47,15.60
2012,10,05,10,48,15.60
2012,10,05,10,49,15.60
2012,10,05,10,50,15.60
2012,10,05,10,51,15.60
2012,10,05,10,52,15.60
2012,10,05,10,53,15.60
2012,10,05,10,54,15.60
2012,10,05,10,55,15.60
2012,10,05,10,56,15.70
2012,10,05,10,57,15.70
2012,10,05,10,58,15.80
2012,10,05,10,59,15.80
2012,10,05,11,00,15.70
2012,10,05,11,01,15.80
2012,10,05,11,02,15.80
2012,10,05,11,03,15.80
2012,10,05,11,04,15.90
2012,10,05,11,05,15.90
2012,10,05,11,06,16.00
2012,10,05,11,07,16.10
2012,10,05,11,08,16.20
2012,10,05,11,09,16.20
2012,10,05,11,10,16.20
2012,10,05,11,11,16.20
2012,10,05,11,12,16.30
2012,10,05,11,13,16.30
2012,10,05,11,14,16.40
2012,10,05,11,15,16.40
2012,10,05,11,16,16.40
2012,10,05,11,17,16.40
2012,10,05,11,18,16.40
2012,10,05,11,19,16.40
2012,10,05,11,20,16.30
2012,10,05,11,21,16.40
2012,10,05,11,22,16.40
2012,10,05,11,23,16.50
2012,10,05,11,24,16.60
2012,10,05,11,25,16.60
2012,10,05,11,26,16.70
2012,10,05,11,27,16.70
2012,10,05,11,28,16.80
2012,10,05,11,29,16.80
2012,10,05,11,30,16.70
2012,10,05,11,31,16.60
2012,10,05,11,32,16.50
2012,10,05,11,33,16.50
2012,10,05,11,34,16.50
2012,10,05,11,35,16.50
2012,10,05,11,36,16.50
2012,10,05,11,37,16.60
2012,10,05,11,38,16.60
2012,10,05,11,39,16.60
2012,10,05,11,40,16.70
2012,10,05,11,41,16.70
2012,10,05,11,42,16.80
2012,10,05,11,43,16.80
2012,10,05,11,44,16.80
2012,10,05,11,45,16.80
2012,10,05,11,46,16.70
2012,10,05,11,47,16.70
2012,10,05,11,48,16.70
2012,10,05,11,49,16.70
2012,10,05,11,50,16.80
2012,10,05,11,51,16.80
2012,10,05,11,52,16.90
2012,10,05,11,53,16.90
2012,10,05,11,54,17.00
2012,10,05,11,55,16.90
2012,10,05,11,56,16.80
2012,10,05,11,57,16.80
2012,10,05,11,58,16.80
2012,10,05,11,59,16.90
2012,10,05,12,00,16.90
2012,10,05,12,01,17.00
2012,10,05,12,02,17.00
2012,10,05,12,03,17.10
2012,10,05,12,04,17.00
2012,10,05,12,05,16.90
2012,10,05,12,06,16.90
2012,10,05,12,07,16.90
2012,10,05,12,08,16.90
2012,10,05,12,09,17.00
2012,10,05,12,10,17.00
2012,10,05,12,11,17.10
2012,10,05,12,12,17.10
2012,10,05,12,13,17.20
2012,10,05,12,14,17.20
2012,10,05,12,15,17.20
2012,10,05,12,16,17.30
2012,10,05,12,17,17.30
2012,10,05,12,18,17.30
2012,10,05,12,19,17.40
2012,10,05,12,20,17.40
2012,10,05,12,21,17.50
2012,10,05,12,22,17.50
2012,10,05,12,23,17.60
2012,10,05,12,24,17.60
2012,10,05,12,25,17.60
2012,10,05,12,26,17.70
2012,10,05,12,27,17.60
2012,10,05,12,28,17.70
2012,10,05,12,29,17.60
2012,10,05,12,30,17.60
2012,10,05,12,31,17.70
2012,10,05,12,32,17.70
2012,10,05,12,33,17.80
2012,10,05,12,34,17.80
2012,10,05,12,35,17.80
2012,10,05,12,36,17.80
2012,10,05,12,37,17.90
2012,10,05,12,38,17.90
2012,10,05,12,39,18.00
2012,10,05,12,40,18.10
2012,10,05,12,41,18.20
2012,10,05,12,42,18.20
2012,10,05,12,43,18.20
2012,10,05,12,44,18.20
2012,10,05,12,45,18.20
2012,10,05,12,46,18.20
2012,10,05,12,47,18.30
2012,10,05,12,48,18.30
2012,10,05,12,49,18.30
2012,10,05,12,50,18.20
2012,10,05,12,51,18.10
2012,10,05,12,52,18.10
2012,10,05,12,53,18.10
2012,10,05,12,54,18.10
2012,10,05,12,55,18.20
2012,10,05,12,56,18.20
2012,10,05,12,57,18.20
2012,10,05,12,58,18.10
2012,10,05,12,59,18.10
2012,10,05,13,00,18.00
2012,10,05,13,01,17.90
2012,10,05,13,02,17.90
2012,10,05,13,03,17.90
2012,10,05,13,04,17.90
2012,10,05,13,05,17.90
2012,10,05,13,06,17.90
2012,10,05,13,07,18.00
2012,10,05,13,08,18.10
2012,10,05,13,09,18.20
2012,10,05,13,10,18.30
2012,10,05,13,11,18.40
2012,10,05,13,12,18.50
2012,10,05,13,13,18.50
2012,10,05,13,14,18.50
2012,10,05,13,15,18.60
2012,10,05,13,16,18.60
2012,10,05,13,17,18.70
2012,10,05,13,18,18.70
2012,10,05,13,19,18.70
2012,10,05,13,20,18.70
2012,10,05,13,21,18.80
2012,10,05,13,22,18.90
2012,10,05,13,23,19.00
2012,10,05,13,24,19.10
2012,10,05,13,25,19.10
2012,10,05,13,26,19.10
2012,10,05,13,27,19.10
2012,10,05,13,28,19.10
2012,10,05,13,29,19.00
2012,10,05,13,30,19.00
2012,10,05,13,31,19.00
2012,10,05,13,32,19.00
2012,10,05,13,33,19.10
2012,10,05,13,34,19.10
2012,10,05,13,35,19.10
2012,10,05,13,36,19.10
2012,10,05,13,37,19.10
2012,10,05,13,38,19.10
2012,10,05,13,39,19.10
2012,10,05,13,40,19.00
2012,10,05,13,41,19.00
2012,10,05,13,42,18.90
2012,10,05,13,43,18.80
2012,10,05,13,44,18.80
2012,10,05,13,45,18.70
2012,10,05,13,46,18.70
2012,10,05,13,47,18.70
2012,10,05,13,48,18.70
2012,10,05,13,49,18.70
2012,10,05,13,50,18.80
2012,10,05,13,51,18.80
2012,10,05,13,52,18.80
2012,10,05,13,53,18.80
2012,10,05,13,54,18.70
2012,10,05,13,55,18.70
2012,10,05,13,56,18.70
2012,10,05,13,57,18.70
2012,10,05,13,58,18.70
2012,10,05,13,59,18.70
2012,10,05,14,00,18.80
2012,10,05,14,01,18.80
2012,10,05,14,02,18.80
2012,10,05,14,03,18.90
2012,10,05,14,04,19.00
2012,10,05,14,05,19.00
2012,10,05,14,06,19.10
2012,10,05,14,07,19.10
2012,10,05,14,08,19.20
2012,10,05,14,09,19.20
2012,10,05,14,10,19.30
2012,10,05,14,11,19.30
2012,10,05,14,12,19.40
2012,10,05,14,13,19.40
2012,10,05,14,14,19.50
2012,10,05,14,15,19.60
2012,10,05,14,16,19.70
2012,10,05,14,17,19.80
2012,10,05,14,18,19.90
2012,10,05,14,19,19.80
2012,10,05,14,20,19.70
2012,10,05,14,21,19.70
2012,10,05,14,22,19.60
2012,10,05,14,23,19.50
2012,10,05,14,24,19.40
2012,10,05,14,25,19.40
2012,10,05,14,26,19.50
2012,10,05,14,27,19.50
2012,10,05,14,28,19.50
2012,10,05,14,29,19.50
2012,10,05,14,30,19.50
2012,10,05,14,31,19.40
2012,10,05,14,32,19.40
2012,10,05,14,33,19.50
2012,10,05,14,34,19.50
2012,10,05,14,35,19.50
2012,10,05,14,36,19.40
2012,10,05,14,37,19.40
2012,10,05,14,38,19.50
2012,10,05,14,39,19.50
2012,10,05,14,40,19.50
2012,10,05,14,41,19.60
2012,10,05,14,42,19.60
2012,10,05,14,43,19.60
2012,10,05,14,44,19.60
2012,10,05,14,45,19.70
2012,10,05,14,46,19.70
2012,10,05,14,47,19.80
2012,10,05,14,48,19.80
2012,10,05,14,49,19.80
2012,10,05,14,50,19.80
2012,10,05,14,51,19.70
2012,10,05,14,52,19.60
2012,10,05,14,53,19.50
2012,10,05,14,54,19.40
2012,10,05,14,55,19.40
2012,10,05,14,56,19.50
2012,10,05,14,57,19.50
2012,10,05,14,58,19.50
2012,10,05,14,59,19.50
2012,10,05,15,00,19.60
2012,10,05,15,01,19.60
2012,10,05,15,02,19.60
2012,10,05,15,03,19.60
2012,10,05,15,04,19.60
2012,10,05,15,05,19.60
2012,10,05,15,06,19.70
2012,10,05,15,07,19.70
2012,10,05,15,08,19.70
2012,10,05,15,09,19.70
2012,10,05,15,10,19.70
2012,10,05,15,11,19.70
2012,10,05,15,12,19.80
2012,10,05,15,13,19.80
2012,10,05,15,14,19.80
2012,10,05,15,15,19.80
2012,10,05,15,16,19.80
2012,10,05,15,17,19.80
2012,10,05,15,18,19.80
2012,10,05,15,19,19.80
2012,10,05,15,20,19.80
2012,10,05,15,21,19.80
2012,10,05,15,22,19.90
2012,10,05,15,23,19.90
2012,10,05,15,24,20.00
2012,10,05,15,25,20.00
2012,10,05,15,26,20.00
2012,10,05,15,27,19.90
2012,10,05,15,28,19.90
2012,10,05,15,29,19.80
2012,10,05,15,30,19.80
2012,10,05,15,31,19.80
2012,10,05,15,32,19.70
2012,10,05,15,33,19.70
2012,10,05,15,34,19.70
2012,10,05,15,35,19.70
2012,10,05,15,36,19.70
2012,10,05,15,37,19.60
2012,10,05,15,38,19.60
2012,10,05,15,39,19.60
2012,10,05,15,40,19.60
2012,10,05,15,41,19.60
2012,10,05,15,42,19.60
2012,10,05,15,43,19.60
2012,10,05,15,44,19.60
2012,10,05,15,45,19.60
2012,10,05,15,46,19.70
2012,10,05,15,47,19.70
2012,10,05,15,48,19.70
2012,10,05,15,49,19.70
2012,10,05,15,50,19.70
2012,10,05,15,51,19.60
2012,10,05,15,52,19.60
2012,10,05,15,53,19.60
2012,10,05,15,54,19.60
2012,10,05,15,55,19.60
2012,10,05,15,56,19.60
2012,10,05,15,57,19.70
2012,10,05,15,58,19.70
2012,10,05,15,59,19.70
2012,10,05,16,00,19.80
2012,10,05,16,01,19.80
2012,10,05,16,02,19.80
2012,10,05,16,03,19.80
2012,10,05,16,04,19.70
2012,10,05,16,05,19.70
2012,10,05,16,06,19.70
2012,10,05,16,07,19.80
2012,10,05,16,08,19.80
2012,10,05,16,09,19.80
2012,10,05,16,10,19.80
2012,10,05,16,11,19.80
2012,10,05,16,12,19.80
2012,10,05,16,13,19.80
2012,10,05,16,14,19.70
2012,10,05,16,15,19.60
2012,10,05,16,16,19.60
2012,10,05,16,17,19.60
2012,10,05,16,18,19.50
2012,10,05,16,19,19.50
2012,10,05,16,20,19.40
2012,10,05,16,21,19.40
2012,10,05,16,22,19.50
2012,10,05,16,23,19.50
2012,10,05,16,24,19.50
2012,10,05,16,25,19.50
2012,10,05,16,26,19.60
2012,10,05,16,27,19.60
2012,10,05,16,28,19.50
2012,10,05,16,29,19.50
2012,10,05,16,30,19.50
2012,10,05,16,31,19.60
2012,10,05,16,32,19.60
2012,10,05,16,33,19.60
2012,10,05,16,34,19.60
2012,10,05,16,35,19.70
2012,10,05,16,36,19.70
2012,10,05,16,37,19.80
2012,10,05,16,38,19.80
2012,10,05,16,39,19.80
2012,10,05,16,40,19.80
2012,10,05,16,41,19.80
2012,10,05,16,42,19.80
2012,10,05,16,43,19.80
2012,10,05,16,44,19.80
2012,10,05,16,45,19.80
2012,10,05,16,46,19.80
2012,10,05,16,47,19.80
2012,10,05,16,48,19.70
2012,10,05,16,49,19.70
2012,10,05,16,50,19.60
2012,10,05,16,51,19.60
2012,10,05,16,52,19.60
2012,10,05,16,53,19.50
2012,10,05,16,54,19.50
2012,10,05,16,55,19.50
2012,10,05,16,56,19.50
2012,10,05,16,57,19.50
2012,10,05,16,58,19.40
2012,10,05,16,59,19.40
2012,10,05,17,00,19.40
2012,10,05,17,01,19.30
2012,10,05,17,02,19.30
2012,10,05,17,03,19.30
2012,10,05,17,04,19.30
2012,10,05,17,05,19.40
2012,10,05,17,06,19.40
2012,10,05,17,07,19.40
2012,10,05,17,08,19.50
2012,10,05,17,09,19.50
2012,10,05,17,10,19.50
2012,10,05,17,11,19.50
2012,10,05,17,12,19.50
2012,10,05,17,13,19.50
2012,10,05,17,14,19.60
2012,10,05,17,15,19.60
2012,10,05,17,16,19.60
2012,10,05,17,17,19.50
2012,10,05,17,18,19.50
2012,10,05,17,19,19.50
2012,10,05,17,20,19.50
2012,10,05,17,21,19.50
2012,10,05,17,22,19.60
2012,10,05,17,23,19.60
2012,10,05,17,24,19.60
2012,10,05,17,25,19.60
2012,10,05,17,26,19.60
2012,10,05,17,27,19.60
2012,10,05,17,28,19.60
2012,10,05,17,29,19.60
2012,10,05,17,30,19.60
2012,10,05,17,31,19.60
2012,10,05,17,32,19.60
2012,10,05,17,33,19.70
2012,10,05,17,34,19.60
2012,10,05,17,35,19.60
2012,10,05,17,36,19.60
2012,10,05,17,37,19.50
2012,10,05,17,38,19.50
2012,10,05,17,39,19.40
2012,10,05,17,40,19.40
2012,10,05,17,41,19.30
2012,10,05,17,42,19.30
2012,10,05,17,43,19.30
2012,10,05,17,44,19.30
2012,10,05,17,45,19.30